Dewpoint
46 47 47 47 47 47 48 48 49 50 49 50 50 51 52 52 53 54 54 54 55 55 55 56 57 59 59 59 59 59 59 59 59 59 59 59 59 58 58 59 59 58 58 58 59 58 58 58 58 58 58 58 58 58 58 57 57 57 57 57 57 57 56 55 53 52 54 54 53 52 52 52 50 50 50 50 49 49 48 49 49 49 49 50 49
46 46 46 48 47 47 47 47 49 49 48 48 49 49 50 51 52 53 53 53 54 54 55 56 58 59 59 59 59 59 59 59 59 59 58 58 58 58 58 58 58 58 58 58 58 58 58 58 58 58 58 58 58 58 58 58 58 57 57 57 57 56 57 56 55 54 52 53 53 54 53 52 52 50 50 49 49 48 49 48 48 49 48 47 47
45 46 46 46 46 47 47 47 48 47 47 47 47 48 48 49 50 51 52 52 54 55 55 56 57 57 58 58 58 58 59 59 59 58 58 58 58 58 58 58 58 58 58 58 58 58 58 58 58 58 58 58 58 58 58 58 58 57 57 57 56 56 56 57 55 53 52 51 52 52 52 51 51 50 49 49 48 49 48 47 48 47 47 46 47
45 45 46 46 46 46 46 46 46 46 46 46 46 46 47 48 48 50 51 53 53 54 55 56 56 57 57 57 58 58 58 58 58 58 58 58 58 58 58 58 58 58 58 58 58 58 58 57 57 57 57 57 57 57 57 57 57 57 56 56 56 56 56 56 56 55 52 51 50 52 51 50 50 48 49 48 47 45 46 45 44 44 44 45 45
44 44 45 45 45 45 45 45 45 45 45 46 46 46 46 47 48 49 50 51 52 54 55 55 56 56 57 56 57 57 57 57 58 58 58 58 58 58 57 57 57 58 58 57 54 57 57 57 57 57 57 56 56 56 56 56 56 56 55 56 55 56 55 56 55 55 54 52 51 50 50 49 48 47 48 47 45 43 42 42 42 42 43 43 44
44 44 45 44 44 44 44 44 45 45 45 46 46 47 47 48 48 49 50 51 52 53 54 55 55 56 56 56 56 57 57 57 57 57 57 57 57 57 57 57 57 57 57 57 57 57 57 57 57 57 56 56 56 56 55 55 55 55 55 54 54 54 54 54 54 53 53 51 50 49 48 49 48 46 45 46 45 45 44 41 40 40 41 41 39
44 44 44 44 44 43 43 43 44 44 45 46 46 47 48 48 49 49 50 51 52 53 53 54 54 55 56 56 56 56 56 56 57 57 57 57 57 56 56 56 56 57 57 57 57 57 57 57 56 56 56 56 56 55 55 55 55 55 54 54 53 53 53 53 52 51 52 52 50 50 50 47 47 45 45 45 44 43 43 41 41 36 34 37 39
44 44 44 44 44 43 43 43 43 44 45 45 46 46 47 47 48 49 48 51 52 52 53 54 54 53 55 55 56 56 56 56 56 56 56 57 56 56 56 56 56 56 57 56 56 56 56 56 56 56 56 56 56 55 54 54 54 54 53 53 53 52 52 51 51 51 51 49 48 47 45 48 44 43 42 43 43 40 38 41 41 36 37 36 37
44 44 43 43 43 43 43 43 44 44 44 44 45 45 46 46 46 47 48 49 51 51 52 52 52 52 53 54 54 55 55 56 56 56 56 56 56 56 56 56 56 56 56 56 56 56 56 56 56 56 54 49 48 49 50 50 54 53 52 52 52 52 51 51 50 50 49 49 47 47 46 44 45 44 40 39 38 42 36 34 34 35 36 37 37
42 42 43 43 43 42 42 42 43 43 43 44 44 44 44 44 45 45 46 47 47 48 49 50 51 52 52 52 53 53 55 55 50 49 50 55 56 56 56 56 55 55 55 54 54 54 55 55 55 47 46 45 45 45 46 46 48 52 53 52 51 51 50 49 49 49 49 47 47 46 45 46 46 44 43 40 38 35 36 35 36 34 36 37 35
42 42 41 41 41 41 41 42 42 42 43 43 43 43 43 43 43 43 44 45 46 46 46 48 50 50 51 51 51 52 53 53 48 48 49 49 53 55 56 56 55 54 54 54 53 52 52 53 53 47 45 43 45 44 45 46 45 46 47 47 48 52 51 50 49 48 47 47 46 46 46 46 45 43 42 41 37 38 35 33 37 37 36 34 32
41 41 41 41 41 41 41 40 40 42 41 42 42 42 41 40 41 42 42 42 43 41 44 46 47 49 50 49 50 51 52 48 48 47 47 47 48 53 55 55 54 54 53 53 53 52 50 50 48 48 49 50 49 47 45 43 44 44 45 44 44 46 47 49 47 46 46 46 45 46 46 45 44 41 39 38 36 33 35 36 37 36 35 35 34
40 41 41 41 40 40 39 40 40 41 41 41 41 41 40 40 40 40 41 41 38 42 44 44 45 46 47 48 49 49 50 48 47 47 45 45 46 50 54 54 53 53 52 52 52 51 49 48 46 44 47 41 43 46 45 43 40 42 42 41 42 43 43 42 43 48 48 47 46 45 45 43 41 40 37 36 35 36 36 37 37 36 36 35 34
40 41 41 40 40 40 39 39 40 40 40 40 40 39 38 40 39 38 37 36 39 41 40 41 43 44 46 47 48 48 49 46 46 46 46 45 45 47 53 52 52 51 51 51 51 50 49 48 46 44 43 42 43 44 43 42 41 40 41 41 41 38 39 40 39 39 43 47 46 45 42 42 41 37 35 37 38 38 37 36 36 35 35 35 34
40 41 40 40 40 39 39 39 40 40 40 39 39 39 39 39 38 38 37 38 39 39 39 39 40 41 43 44 46 46 47 45 45 45 45 45 45 45 50 51 50 50 50 50 50 50 49 48 47 46 43 42 42 43 43 42 41 41 40 40 41 40 40 40 40 41 41 42 45 44 41 39 38 37 38 39 39 39 38 37 36 36 35 34 34
41 41 41 40 40 40 39 40 40 40 39 39 38 38 39 39 39 38 37 37 37 36 37 37 38 39 40 41 43 44 45 43 43 43 44 45 45 46 49 49 49 49 48 48 48 48 47 47 46 45 43 42 40 40 41 42 42 40 39 40 39 39 39 38 39 40 41 41 41 42 41 39 38 37 37 38 38 36 34 34 34 33 33 32 31
40 40 40 41 40 40 40 40 40 40 39 38 38 38 38 38 38 37 37 38 37 37 38 38 38 38 39 40 41 42 43 42 42 42 43 44 44 47 47 47 47 47 46 45 45 45 45 45 45 44 42 42 40 41 41 40 41 40 39 39 39 38 37 38 38 38 39 39 39 39 39 39 39 39 39 39 37 36 34 34 33 33 32 29 28
40 40 40 40 40 40 40 40 40 39 39 38 38 38 38 38 38 37 37 38 38 38 38 38 38 39 39 40 41 41 42 41 40 41 42 42 43 46 46 46 45 45 43 42 42 43 42 39 40 44 43 42 39 40 40 40 40 39 39 37 36 35 35 37 37 37 37 37 37 37 37 38 38 38 38 38 38 37 35 33 32 32 31 30 29
35 35 35 37 38 38 39 39 39 39 39 39 39 38 38 38 37 36 37 38 38 38 37 38 39 39 39 41 38 40 42 41 39 40 41 41 41 45 45 44 44 43 42 40 38 39 38 37 37 39 41 40 39 40 40 39 40 39 38 37 36 35 35 36 36 35 35 35 35 35 35 35 35 35 35 36 36 35 35 35 33 32 31 31 31
31 33 34 35 37 37 38 38 38 38 38 38 38 38 37 37 37 36 36 37 38 38 37 38 38 39 39 40 41 41 41 42 38 39 40 40 41 43 43 43 42 43 40 39 37 36 36 36 36 38 39 39 39 40 39 39 38 37 37 36 35 34 35 35 35 35 34 34 34 34 34 34 34 33 33 33 34 34 34 35 35 34 33 32 32
29 31 33 34 35 36 37 37 37 38 37 37 38 37 36 36 35 35 35 35 35 37 37 37 37 38 38 38 40 41 42 42 38 37 39 40 41 41 41 43 44 42 38 37 37 37 35 35 35 37 38 39 39 39 38 38 37 36 36 35 35 34 35 34 34 33 34 33 33 33 33 33 33 32 32 32 33 33 34 33 33 33 33 32 32
28 29 31 33 33 34 35 35 35 36 36 36 35 36 35 34 34 35 34 34 35 35 35 35 36 37 36 35 37 39 38 37 38 36 38 39 40 40 39 39 39 38 37 37 37 36 35 35 34 35 37 38 38 38 38 38 37 35 36 36 36 36 34 33 33 33 33 33 33 33 32 32 31 30 30 31 31 32 32 32 32 33 34 34 33
27 29 31 32 33 33 33 34 34 35 34 34 34 34 34 33 33 33 33 34 34 34 34 34 34 35 33 30 31 32 33 33 34 35 36 38 38 39 37 36 37 37 38 37 36 35 34 34 34 34 36 36 37 38 38 38 36 36 37 36 36 35 34 33 33 33 33 32 31 31 31 30 30 29 30 31 31 32 32 32 33 33 34 34 34
26 28 31 32 32 32 33 33 33 33 33 33 33 33 33 32 32 32 32 33 33 34 33 33 32 32 33 29 29 29 30 30 33 34 35 36 37 37 37 37 36 35 35 35 33 33 32 32 33 34 35 36 36 37 37 36 34 37 37 36 35 34 32 32 32 32 31 30 29 29 29 30 30 30 30 31 30 31 31 31 31 30 31 30 29
25 28 31 32 32 32 31 32 32 31 31 31 31 32 31 31 32 31 30 31 31 32 32 31 32 31 30 30 29 29 30 29 31 33 33 34 36 36 36 36 36 35 33 32 32 32 33 33 34 34 35 35 36 36 36 35 36 36 35 35 33 32 32 32 32 31 31 30 30 30 30 31 31 30 30 30 30 30 30 30 30 30 29 29 29
26 29 32 32 32 32 31 30 30 30 30 30 30 30 30 31 30 30 30 30 30 31 31 30 30 29 29 29 28 29 31 32 32 32 33 33 33 34 35 34 32 32 32 32 32 33 34 34 34 34 34 34 34 33 33 33 34 33 33 33 32 32 32 32 31 31 30 30 30 31 31 31 30 31 31 31 31 30 29 29 29 29 28 29 29
27 31 31 31 32 32 32 31 31 30 29 29 29 29 30 30 29 29 28 28 29 29 30 30 29 29 29 28 28 29 30 32 32 32 32 31 29 29 30 30 31 31 31 31 31 32 32 32 32 32 32 32 32 32 32 32 32 32 32 32 32 32 32 31 31 31 31 30 30 30 31 31 31 30 30 30 29 29 29 29 27 27 27 27 26
27 30 30 30 30 31 31 31 31 30 29 29 29 29 29 30 29 28 28 28 27 28 28 28 28 29 29 30 29 29 30 31 31 31 30 30 29 29 29 29 29 30 30 30 31 31 31 31 31 32 32 31 31 30 31 31 31 31 31 31 31 31 30 30 30 30 30 31 31 31 30 30 29 29 29 28 27 28 28 27 27 26 27 27 26
26 28 28 28 28 30 30 30 30 30 29 28 28 28 28 29 29 29 30 30 29 28 28 29 29 29 30 30 30 29 29 29 30 31 30 31 29 29 29 30 30 30 31 32 30 31 31 30 30 30 29 29 29 29 30 30 30 31 30 30 30 30 30 30 29 30 30 30 29 28 28 28 28 29 28 27 28 27 27 27 27 26 27 27 27
22 23 25 26 27 27 28 28 29 28 28 28 27 26 28 29 29 28 28 30 31 31 31 29 29 29 29 30 30 29 28 30 32 32 32 32 32 32 32 32 32 31 32 31 30 29 29 28 28 28 28 28 28 29 29 29 28 28 29 30 30 30 30 30 30 29 29 28 28 28 27 28 27 28 29 29 30 30 30 29 30 30 30 29 29
19 20 21 22 24 25 25 25 26 27 27 26 26 25 25 26 28 29 29 29 30 30 31 31 31 31 30 30 31 31 31 31 32 31 31 31 31 32 32 32 31 31 31 29 29 28 28 27 28 28 28 28 28 29 29 29 29 28 28 29 30 30 29 29 28 29 28 28 28 28 29 29 28 29 28 28 27 27 28 28 28 28 27 26 23
15 17 18 19 21 22 22 23 23 24 24 25 26 25 24 23 24 26 27 28 29 29 30 30 30 30 30 29 29 29 30 30 31 30 30 30 30 31 31 31 30 30 30 30 27 27 27 27 27 27 28 28 28 29 28 28 28 28 28 27 27 28 27 28 29 28 27 27 27 27 25 25 25 25 26 26 26 24 23 23 22 22 21 20 20
14 15 16 16 17 19 20 20 21 22 22 22 22 23 23 23 22 22 24 25 25 27 28 29 29 29 29 29 29 28 29 29 29 29 29 30 30 30 30 30 30 29 29 28 27 27 27 27 27 28 28 27 27 27 27 27 27 26 26 26 25 24 25 25 26 24 24 23 23 23 23 23 23 23 23 22 21 21 22 22 22 21 20 20 22
13 14 14 15 15 15 16 17 18 19 20 21 21 21 22 22 22 23 22 21 20 21 23 26 27 28 28 28 28 28 28 28 28 29 29 29 29 29 29 29 29 29 29 27 27 27 27 26 26 26 26 26 26 25 24 23 23 23 23 23 23 23 23 23 22 21 21 21 21 22 22 21 21 20 20 19 19 19 19 19 18 19 20 19 17
11 13 14 14 14 14 15 15 16 16 17 18 19 19 20 20 21 20 19 18 18 18 18 19 23 26 27 28 28 28 28 28 28 28 29 29 29 30 29 26 25 25 25 26 26 26 25 24 23 23 22 22 22 21 20 20 20 20 20 20 20 20 20 20 20 19 19 19 19 20 20 20 19 19 17 15 15 15 16 17 17 17 16 15 13
9 10 11 11 12 13 13 14 14 15 15 16 17 18 18 18 18 19 19 19 18 17 17 18 19 22 22 24 27 27 27 28 28 28 29 29 28 27 24 24 24 23 22 22 21 21 20 20 19 19 18 18 18 17 17 17 17 17 18 18 17 18 18 17 18 17 18 18 19 18 17 17 17 16 15 15 16 15 15 14 13 13 13 12 13
7 9 9 10 11 12 12 12 13 14 15 15 15 15 16 16 17 17 17 17 17 18 18 17 17 17 18 19 21 24 25 25 25 25 25 25 25 23 23 23 21 19 18 18 17 16 15 15 15 15 15 14 14 15 14 14 15 15 15 15 15 15 15 16 16 17 16 15 15 15 15 15 15 14 14 13 13 11 11 11 11 12 12 13 13
5 7 8 9 10 11 11 10 11 13 13 13 13 14 14 15 15 16 16 16 17 16 15 14 14 13 13 15 18 20 22 21 20 19 18 18 17 16 16 16 16 15 14 14 14 13 12 12 12 12 12 12 12 12 12 12 13 13 13 14 15 15 15 14 14 14 14 14 14 13 14 14 14 13 13 11 10 10 10 11 10 9 10 12 12
4 6 8 9 9 9 10 10 11 11 11 12 12 13 13 14 14 14 15 15 14 13 12 11 11 11 13 14 15 17 16 14 14 13 12 11 11 11 12 12 12 11 11 11 11 11 10 10 10 10 10 10 10 10 11 11 12 12 12 12 11 11 11 11 11 12 12 12 12 12 12 11 11 11 11 9 8 9 8 8 9 9 10 10 10
3 4 6 7 7 8 9 9 9 9 10 10 10 11 12 12 13 13 14 13 12 11 10 10 10 11 13 14 14 14 12 11 11 10 9 8 8 8 8 8 8 8 8 8 8 8 8 8 8 8 9 9 9 9 9 10 10 10 9 9 9 9 9 9 9 10 10 10 10 10 10 9 9 9 8 7 7 7 7 7 8 9 9 9 9
2 3 5 6 6 6 7 8 8 8 8 9 9 9 10 11 11 12 12 13 12 11 9 9 8 10 11 12 14 13 11 10 10 9 8 7 6 6 5 5 6 6 6 6 6 7 7 7 7 7 7 7 7 7 7 8 8 7 7 7 7 7 8 8 8 8 8 8 8 8 8 8 7 7 5 6 7 7 7 8 8 8 8 8 8
1 2 3 4 5 5 5 6 6 7 7 8 8 9 9 10 10 10 11 11 11 10 8 8 7 8 10 11 11 11 9 9 9 8 6 6 5 4 4 4 5 5 4 4 5 5 5 5 6 5 5 5 6 6 6 6 6 6 6 6 6 6 6 7 7 6 7 7 7 7 7 6 6 6 5 6 5 5 5 5 6 7 7 7 8
1 2 2 3 3 4 4 5 5 6 6 7 8 8 8 9 9 9 9 9 9 8 7 7 7 7 7 9 8 8 6 7 7 6 5 4 4 3 3 3 4 4 4 4 4 4 4 4 4 4 4 4 5 4 4 5 5 5 5 5 5 5 5 5 5 6 6 6 5 5 5 5 4 4 4 4 4 5 4 5 5 6 7 7 7
-0 1 2 3 3 3 4 4 4 5 5 5 6 6 7 7 7 7 7 7 6 6 6 5 5 5 5 5 5 4 4 4 4 4 4 3 3 2 2 2 3 3 3 2 3 3 3 3 3 3 3 4 4 4 4 4 4 4 4 4 4 4 4 4 4 4 4 4 4 3 4 4 4 5 4 5 4 4 4 5 6 6 6 7 7
-3 -1 0 0 1 2 2 3 3 3 4 3 2 2 4 4 4 5 5 5 5 5 4 4 4 4 3 3 3 2 2 3 3 3 2 2 1 1 1 1 2 2 1 1 2 2 2 2 2 2 2 2 2 3 3 3 3 3 4 3 3 3 3 3 3 4 4 3 3 3 3 3 3 3 4 4 5 5 5 5 6 7 7 7 6
-3 -3 -1 -1 -0 1 1 1 2 0 0 0 -0 -1 0 1 1 2 2 2 3 3 2 2 2 2 2 2 1 1 1 2 1 1 1 1 1 0 0 1 1 1 1 1 1 1 1 1 1 0 0 1 1 1 2 2 3 3 3 3 3 3 4 4 4 4 4 4 3 3 3 4 4 5 5 5 5 6 5 6 6 6 6 6 6
-5 -4 -3 -2 -2 -1 -0 -0 -1 -0 -1 -1 -1 -1 -0 -0 -1 0 0 1 0 -1 -2 -2 -1 -1 -0 0 -0 0 1 0 0 0 -0 -0 -1 -1 -1 -0 -0 0 0 0 0 -0 -0 -0 -0 -0 -0 -0 0 0 1 2 2 3 3 4 4 4 4 5 5 5 5 5 5 4 4 5 5 5 6 6 6 6 6 6 5 5 6 6 6
-5 -5 -5 -3 -5 -4 -4 -4 -2 -1 -2 -2 -2 -1 -1 -1 -3 -2 -5 -4 -5 -5 -6 -5 -6 -5 -3 -4 -2 -3 -1 -1 -1 -1 -1 -1 -1 -1 -2 -2 -2 -1 -1 -1 -1 -1 -1 -1 -1 -1 -1 -1 -1 -0 0 0 1 2 2 4 4 4 5 4 3 4 5 5 5 6 6 6 6 7 7 6 5 5 5 5 5 6 6 6 7
-6 -6 -6 -5 -5 -5 -6 -5 -4 -5 -5 -4 -4 -4 -3 -4 -4 -6 -5 -6 -7 -7 -9 -8 -8 -7 -7 -6 -5 -5 -5 -3 -3 -2 -2 -2 -2 -2 -2 -3 -3 -2 -2 -2 -2 -2 -2 -2 -2 -2 -2 -2 -1 -1 -1 -0 1 1 1 2 3 4 5 5 5 5 6 7 7 7 7 6 4 4 4 4 5 5 5 5 6 6 6 7 7
-8 -6 -7 -7 -7 -7 -6 -7 -7 -9 -7 -7 -7 -7 -5 -6 -7 -7 -7 -7 -9 -8 -10 -9 -9 -10 -10 -9 -7 -7 -7 -6 -5 -4 -4 -4 -4 -4 -4 -4 -4 -4 -3 -3 -2 -2 -2 -3 -2 -2 -2 -2 -2 -2 -1 -1 -1 -1 -2 -1 4 5 5 6 6 7 8 8 7 5 5 5 5 4 4 5 5 5 5 6 6 7 7 7 7
-8 -8 -8 -8 -8 -8 -9 -10 -10 -9 -10 -9 -9 -9 -8 -9 -9 -8 -8 -9 -9 -8 -9 -11 -12 -10 -10 -10 -7 -8 -8 -7 -6 -6 -6 -6 -7 -6 -5 -5 -5 -5 -4 -3 -4 -4 -3 -3 -2 -2 -2 -2 -2 -2 -2 -2 -3 -4 2 4 4 5 6 6 8 7 7 7 6 6 6 6 5 5 5 5 6 6 6 7 7 7 7 7 7